2021-101E (49394 NORAD) Tracking and Keplerian Element Data

This shows tracking and keplerian element data for the satellite.

Feedback or suggestion? Click here.




ElementValue
Catalog49394
Name2021-101E
Epoch Orbit445
Epoch Day340.07427542
Epoch Year2021
RAAN237.5362
Inclination34.9978
Eccentricity0.0004866
Argument of Perigee237.6429
Mean Anonmoly232.8874
Mean Motion15.23661087
Decay Rate7.917E-05
L11 49394U 21101E 21340.07427542 .00007917 00000+0 32330-3 0 9992
L22 49394 34.9978 237.5362 0004866 237.6429 232.8874 15.23661087 4452



Live tracking and technical data element details for 2021-101E (NORAD 49394). 2021-101E can be tracked NOW for your location showing map with azimuth and elevation plus other details from your city location.







IsCatalogInMostPopularTable: catalog: 49394, numindb: 36
Update: records affected: 1



GetName: 49394 2021-101E

Hit Count: updated at: Sun, 28 May 2023 07:06:41 GMT